Hourly Data Report for May 24, 2004

TORONTO CITY
ONTARIO

43°40'00.000" N
79°24'00.000" W
112.50 m
6158355
71508
XTO

Download Data

Hourly Data (May 2004)
Hourly Data Report for May 24, 2004
TIME
LST
Temp Definition
°C
Dew Point Definition
°C
Rel Hum Definition
%
Precip. Amount Definition
mm

Wind Dir Definition
10's deg

Wind Spd Definition
km/h
Visibility Definition
km
Stn Press Definition
kPa
Hmdx Definition


Wind Chill Definition


Weather Definition


00:00 13.0 12.7 98   LegendMM LegendMM LegendMM 99.34     LegendNANA
01:00 12.1 11.9 99   LegendMM LegendMM LegendMM 99.29     LegendNANA
02:00 11.4 11.3 99   LegendMM LegendMM LegendMM 99.26     LegendNANA
03:00 11.7 11.7 100   LegendMM LegendMM LegendMM 99.22     LegendNANA
04:00 11.8 11.8 100   LegendMM LegendMM LegendMM 99.24     LegendNANA
05:00 11.8 11.7 99   LegendMM LegendMM LegendMM 99.08     LegendNANA
06:00 11.9 11.8 99   LegendMM LegendMM LegendMM 99.11     LegendNANA
07:00 12.1 12.1 100   LegendMM LegendMM LegendMM 99.18     LegendNANA
08:00 13.3 13.3 100   LegendMM LegendMM LegendMM 99.15     LegendNANA
09:00 16.6 15.6 94   LegendMM LegendMM LegendMM 99.10     LegendNANA
10:00 18.0 15.8 87   LegendMM LegendMM LegendMM 99.06     LegendNANA
11:00 17.4 15.2 87   LegendMM LegendMM LegendMM 99.01     LegendNANA
12:00 15.8 14.6 93   LegendMM LegendMM LegendMM 99.04     LegendNANA
13:00 18.0 17.0 94   LegendMM LegendMM LegendMM 99.08     LegendNANA
14:00 19.9 14.4 71   LegendMM LegendMM LegendMM 99.15     LegendNANA
15:00 19.5 13.7 69   LegendMM LegendMM LegendMM 99.22     LegendNANA
16:00 19.2 13.7 70   LegendMM LegendMM LegendMM 99.30     LegendNANA
17:00 18.5 13.2 71   LegendMM LegendMM LegendMM 99.39     LegendNANA
18:00 17.4 12.6 73   LegendMM LegendMM LegendMM 99.49     LegendNANA
19:00 15.6 11.7 78   LegendMM LegendMM LegendMM 99.59     LegendNANA
20:00 14.9 11.3 79   LegendMM LegendMM LegendMM 99.59     LegendNANA
21:00 14.5 11.2 81   LegendMM LegendMM LegendMM 99.69     LegendNANA
22:00 13.8 11.0 83   LegendMM LegendMM LegendMM 99.79     LegendNANA
23:00 13.3 10.9 85   LegendMM LegendMM LegendMM 99.81     LegendNANA

Notes on Data Quality.

Legend

  • E = Estimated
  • M = Missing
  • NA = Not Available*
  • [empty] = Indicates an unobserved value
Date modified: